SWA660 KLAS-KOAK

Flight info

Callsign SWA660
Flight time 1h 6m
Altitude 36000
Route JOHKR5 KENNO RUSME OAKES3
Aircraft B38M/M-SDE1FGHILORVWXY/HB1

Departure

Time 2026-05-06 05:20
Airport Harry Reid International Airport (KLAS)

Arrival

Time 2026-05-06 06:27
Airport San Francisco Bay Oakland International Airport (KOAK)
Time Latitude Longitude Altitude Speed Heading
2026-05-06 04:42 36.08200 -115.14841 2194 ft 0 kts 65°
2026-05-06 05:02 36.08195 -115.14855 2193 ft 2 kts 65°
2026-05-06 05:02 36.08188 -115.14872 2193 ft 2 kts 77°
2026-05-06 05:02 36.08189 -115.14890 2193 ft 2 kts 115°
2026-05-06 05:02 36.08199 -115.14904 2193 ft 1 kts 148°
2026-05-06 05:03 36.08204 -115.14908 2193 ft 1 kts 158°
2026-05-06 05:03 36.08207 -115.14909 2193 ft 0 kts 155°
2026-05-06 05:05 36.08201 -115.14906 2193 ft 0 kts 155°
2026-05-06 05:06 36.08200 -115.14906 2193 ft 0 kts 155°
2026-05-06 05:06 36.08200 -115.14905 2193 ft 0 kts 155°
2026-05-06 05:06 36.08199 -115.14905 2193 ft 0 kts 155°
2026-05-06 05:12 36.08198 -115.14904 2193 ft 0 kts 155°
2026-05-06 05:12 36.08174 -115.14890 2193 ft 5 kts 155°
2026-05-06 05:13 36.08124 -115.14862 2193 ft 10 kts 155°
2026-05-06 05:13 36.08047 -115.14819 2193 ft 14 kts 156°
2026-05-06 05:13 36.07952 -115.14765 2193 ft 12 kts 154°
2026-05-06 05:13 36.07930 -115.14752 2193 ft 0 kts 155°
2026-05-06 05:14 36.07927 -115.14751 2193 ft 2 kts 155°
2026-05-06 05:14 36.07890 -115.14729 2193 ft 9 kts 155°
2026-05-06 05:14 36.07847 -115.14649 2193 ft 14 kts 96°
2026-05-06 05:14 36.07837 -115.14494 2193 ft 21 kts 95°
2026-05-06 05:15 36.07826 -115.14288 2193 ft 23 kts 90°
2026-05-06 05:15 36.07824 -115.14097 2193 ft 21 kts 89°
2026-05-06 05:15 36.07825 -115.13919 2193 ft 20 kts 90°
2026-05-06 05:15 36.07826 -115.13743 2193 ft 20 kts 90°
2026-05-06 05:16 36.07825 -115.13567 2193 ft 20 kts 89°
2026-05-06 05:16 36.07826 -115.13396 2193 ft 19 kts 90°
2026-05-06 05:16 36.07829 -115.13223 2193 ft 20 kts 87°
2026-05-06 05:16 36.07829 -115.13040 2193 ft 22 kts 91°
2026-05-06 05:17 36.07827 -115.12830 2193 ft 26 kts 90°
2026-05-06 05:17 36.07826 -115.12596 2193 ft 27 kts 90°
2026-05-06 05:17 36.07826 -115.12372 2193 ft 23 kts 90°
2026-05-06 05:17 36.07797 -115.12225 2193 ft 15 kts 127°
2026-05-06 05:18 36.07734 -115.12138 2193 ft 11 kts 148°
2026-05-06 05:18 36.07660 -115.12130 2193 ft 10 kts 203°
2026-05-06 05:18 36.07642 -115.12206 2193 ft 6 kts 269°
2026-05-06 05:18 36.07642 -115.12209 2193 ft 0 kts 269°
2026-05-06 05:19 36.07642 -115.12212 2193 ft 2 kts 269°
2026-05-06 05:19 36.07642 -115.12312 2193 ft 29 kts 270°
2026-05-06 05:19 36.07641 -115.12843 2193 ft 92 kts 269°
2026-05-06 05:20 36.07640 -115.13863 2193 ft 142 kts 269°
2026-05-06 05:20 36.07641 -115.15249 2217 ft 178 kts 267°
2026-05-06 05:20 36.07668 -115.16777 2748 ft 180 kts 270°
2026-05-06 05:20 36.07672 -115.18250 3530 ft 169 kts 266°
2026-05-06 05:21 36.07641 -115.19767 3904 ft 186 kts 267°
2026-05-06 05:21 36.07526 -115.21420 4278 ft 202 kts 259°
2026-05-06 05:21 36.07262 -115.23183 4688 ft 218 kts 257°
2026-05-06 05:21 36.06755 -115.24988 5092 ft 234 kts 238°
2026-05-06 05:22 36.05542 -115.26430 5461 ft 254 kts 204°
2026-05-06 05:22 36.03796 -115.26987 5943 ft 269 kts 193°
2026-05-06 05:22 36.01974 -115.27753 6463 ft 281 kts 205°
2026-05-06 05:22 36.00189 -115.28801 7154 ft 286 kts 207°
2026-05-06 05:23 35.98385 -115.29829 7816 ft 293 kts 208°
2026-05-06 05:23 35.96581 -115.31012 8519 ft 297 kts 211°
2026-05-06 05:23 35.92888 -115.33504 9841 ft 309 kts 210°
2026-05-06 05:24 35.91018 -115.34859 10543 ft 312 kts 218°
2026-05-06 05:24 35.89477 -115.36706 10971 ft 318 kts 238°
2026-05-06 05:24 35.88619 -115.39187 11070 ft 310 kts 266°
2026-05-06 05:24 35.88549 -115.41779 11068 ft 302 kts 276°
2026-05-06 05:25 35.88617 -115.44344 11065 ft 299 kts 275°
2026-05-06 05:25 35.88678 -115.46929 11049 ft 298 kts 276°
2026-05-06 05:25 35.88727 -115.49457 11054 ft 300 kts 275°
2026-05-06 05:25 35.88779 -115.52046 11015 ft 299 kts 276°
2026-05-06 05:26 35.88827 -115.54590 11000 ft 297 kts 275°
2026-05-06 05:26 35.88875 -115.57157 11005 ft 305 kts 275°
2026-05-06 05:26 35.88931 -115.59838 11482 ft 316 kts 275°
2026-05-06 05:26 35.88981 -115.62517 12203 ft 319 kts 276°
2026-05-06 05:27 35.89030 -115.65285 12905 ft 323 kts 275°
2026-05-06 05:27 35.89079 -115.68081 13516 ft 330 kts 276°
2026-05-06 05:27 35.89129 -115.70885 14243 ft 332 kts 275°
2026-05-06 05:27 35.89175 -115.73746 14889 ft 338 kts 275°
2026-05-06 05:28 35.89223 -115.76640 15600 ft 341 kts 275°
2026-05-06 05:28 35.89275 -115.79603 16219 ft 347 kts 275°
2026-05-06 05:28 35.89330 -115.82563 16877 ft 350 kts 275°
2026-05-06 05:28 35.89383 -115.85542 17554 ft 352 kts 274°
2026-05-06 05:29 35.89436 -115.88574 18168 ft 357 kts 275°
2026-05-06 05:29 35.89713 -115.91634 18710 ft 359 kts 287°
2026-05-06 05:29 35.90561 -115.94463 19279 ft 355 kts 304°
2026-05-06 05:29 35.92017 -115.96912 19909 ft 350 kts 318°
2026-05-06 05:30 35.93708 -115.99061 20449 ft 353 kts 320°
2026-05-06 05:30 35.95434 -116.01166 21047 ft 354 kts 321°
2026-05-06 05:30 35.97196 -116.03332 21711 ft 354 kts 321°
2026-05-06 05:30 35.98941 -116.05487 22163 ft 360 kts 321°
2026-05-06 05:31 36.00713 -116.07678 22645 ft 364 kts 321°
2026-05-06 05:31 36.02486 -116.09880 23237 ft 365 kts 322°
2026-05-06 05:31 36.04293 -116.12112 23723 ft 368 kts 322°
2026-05-06 05:31 36.06099 -116.14336 24239 ft 370 kts 323°
2026-05-06 05:32 36.07909 -116.16572 24875 ft 369 kts 323°
2026-05-06 05:32 36.09746 -116.18841 25226 ft 375 kts 323°
2026-05-06 05:32 36.11621 -116.21161 25639 ft 379 kts 323°
2026-05-06 05:32 36.13470 -116.23464 26159 ft 380 kts 323°
2026-05-06 05:33 36.15331 -116.25780 26563 ft 383 kts 322°
2026-05-06 05:33 36.17237 -116.28147 27016 ft 385 kts 323°
2026-05-06 05:33 36.19122 -116.30490 27416 ft 388 kts 323°
2026-05-06 05:33 36.21024 -116.32855 27703 ft 394 kts 323°
2026-05-06 05:34 36.22995 -116.35307 27829 ft 404 kts 323°
2026-05-06 05:34 36.25006 -116.37806 27951 ft 414 kts 322°
2026-05-06 05:34 36.27038 -116.40333 28147 ft 422 kts 323°
2026-05-06 05:34 36.29115 -116.42915 28679 ft 420 kts 323°
2026-05-06 05:35 36.31191 -116.45425 28989 ft 423 kts 324°
2026-05-06 05:35 36.33331 -116.47965 29433 ft 423 kts 324°
2026-05-06 05:35 36.35479 -116.50503 29705 ft 428 kts 325°
2026-05-06 05:35 36.37613 -116.53040 30120 ft 429 kts 324°
2026-05-06 05:36 36.39782 -116.55618 30365 ft 434 kts 324°
2026-05-06 05:36 36.41954 -116.58208 30749 ft 435 kts 324°
2026-05-06 05:36 36.44113 -116.60768 31098 ft 436 kts 324°
2026-05-06 05:36 36.46310 -116.63355 31467 ft 436 kts 326°
2026-05-06 05:37 36.48555 -116.65913 31751 ft 438 kts 326°
2026-05-06 05:37 36.50782 -116.68424 32364 ft 432 kts 326°
2026-05-06 05:37 36.53027 -116.70961 32783 ft 431 kts 326°
2026-05-06 05:37 36.55232 -116.73447 33032 ft 433 kts 326°
2026-05-06 05:38 36.57461 -116.75980 33515 ft 431 kts 326°
2026-05-06 05:38 36.59647 -116.78482 33889 ft 430 kts 326°
2026-05-06 05:38 36.61853 -116.81001 34288 ft 427 kts 326°
2026-05-06 05:38 36.64020 -116.83480 34660 ft 425 kts 325°
2026-05-06 05:39 36.66190 -116.85958 34823 ft 428 kts 325°
2026-05-06 05:39 36.68386 -116.88469 35166 ft 426 kts 325°
2026-05-06 05:39 36.70565 -116.90949 35388 ft 425 kts 327°
2026-05-06 05:39 36.72876 -116.93206 35621 ft 421 kts 332°
2026-05-06 05:40 36.75317 -116.95197 35858 ft 417 kts 336°
2026-05-06 05:40 36.77842 -116.96996 36034 ft 417 kts 338°
2026-05-06 05:40 36.82946 -117.00409 36037 ft 413 kts 338°
2026-05-06 05:41 36.87962 -117.03713 36045 ft 406 kts 339°
2026-05-06 05:41 36.92973 -117.07011 36042 ft 411 kts 339°
2026-05-06 05:42 36.98033 -117.10310 36048 ft 410 kts 339°
2026-05-06 05:42 37.03097 -117.13616 36075 ft 410 kts 339°
2026-05-06 05:43 37.08132 -117.16881 36076 ft 409 kts 339°
2026-05-06 05:43 37.13169 -117.20167 36087 ft 409 kts 339°
2026-05-06 05:44 37.18243 -117.23487 36086 ft 409 kts 339°
2026-05-06 05:44 37.23315 -117.26816 36093 ft 410 kts 339°
2026-05-06 05:45 37.28343 -117.30186 36088 ft 411 kts 336°
2026-05-06 05:45 37.33031 -117.34479 36090 ft 420 kts 328°
2026-05-06 05:46 37.37502 -117.39254 36094 ft 419 kts 326°
2026-05-06 05:46 37.41919 -117.44006 36088 ft 419 kts 326°
2026-05-06 05:47 37.44120 -117.46381 36383 ft 421 kts 325°
2026-05-06 05:47 37.46280 -117.48947 35937 ft 426 kts 320°
2026-05-06 05:47 37.48137 -117.51883 36255 ft 436 kts 309°
2026-05-06 05:47 37.49455 -117.55379 36133 ft 447 kts 297°
2026-05-06 05:48 37.51053 -117.62927 36111 ft 451 kts 288°
2026-05-06 05:48 37.52217 -117.70770 36108 ft 458 kts 287°
2026-05-06 05:49 37.53359 -117.78677 36108 ft 456 kts 287°
2026-05-06 05:49 37.54493 -117.86485 36111 ft 453 kts 287°
2026-05-06 05:50 37.55631 -117.94331 36107 ft 455 kts 287°
2026-05-06 05:50 37.56756 -118.02145 36115 ft 452 kts 287°
2026-05-06 05:51 37.57876 -118.09907 36115 ft 455 kts 287°
2026-05-06 05:51 37.59004 -118.17690 36137 ft 452 kts 287°
2026-05-06 05:52 37.60122 -118.25524 36151 ft 454 kts 287°
2026-05-06 05:52 37.61235 -118.33321 36154 ft 453 kts 287°
2026-05-06 05:53 37.62343 -118.41101 36136 ft 453 kts 287°
2026-05-06 05:53 37.63444 -118.48935 36132 ft 455 kts 287°
2026-05-06 05:54 37.64532 -118.56717 36131 ft 452 kts 287°
2026-05-06 05:54 37.65623 -118.64529 36163 ft 453 kts 287°
2026-05-06 05:55 37.66715 -118.72343 36162 ft 453 kts 287°
2026-05-06 05:55 37.67809 -118.80192 36153 ft 454 kts 287°
2026-05-06 05:56 37.68894 -118.88047 36169 ft 455 kts 287°
2026-05-06 05:56 37.69954 -118.95843 36190 ft 453 kts 287°
2026-05-06 05:57 37.71019 -119.03656 36214 ft 453 kts 287°
2026-05-06 05:57 37.72082 -119.11491 36235 ft 452 kts 287°
2026-05-06 05:58 37.73133 -119.19298 36257 ft 452 kts 287°
2026-05-06 05:58 37.74171 -119.27079 36277 ft 451 kts 287°
2026-05-06 05:59 37.75204 -119.34860 36284 ft 451 kts 287°
2026-05-06 05:59 37.76236 -119.42664 36249 ft 451 kts 287°
2026-05-06 06:00 37.77277 -119.50441 36212 ft 450 kts 287°
2026-05-06 06:00 37.78308 -119.58206 36193 ft 450 kts 287°
2026-05-06 06:01 37.79320 -119.65962 36171 ft 449 kts 286°
2026-05-06 06:01 37.79824 -119.69827 35970 ft 443 kts 286°
2026-05-06 06:01 37.80316 -119.73642 35584 ft 437 kts 286°
2026-05-06 06:02 37.80799 -119.77399 35094 ft 434 kts 286°
2026-05-06 06:02 37.81282 -119.81163 34583 ft 431 kts 286°
2026-05-06 06:02 37.81758 -119.84872 34071 ft 428 kts 286°
2026-05-06 06:02 37.82230 -119.88552 33572 ft 425 kts 286°
2026-05-06 06:03 37.82698 -119.92218 33082 ft 422 kts 286°
2026-05-06 06:03 37.83160 -119.95842 32586 ft 419 kts 286°
2026-05-06 06:03 37.83624 -119.99468 32095 ft 416 kts 286°
2026-05-06 06:03 37.84085 -120.03062 31596 ft 414 kts 286°
2026-05-06 06:04 37.84535 -120.06588 31104 ft 411 kts 286°
2026-05-06 06:04 37.84987 -120.10136 30609 ft 408 kts 286°
2026-05-06 06:04 37.85439 -120.13692 30126 ft 406 kts 286°
2026-05-06 06:04 37.85879 -120.17203 29635 ft 403 kts 285°
2026-05-06 06:05 37.86309 -120.20660 29149 ft 401 kts 285°
2026-05-06 06:05 37.86739 -120.24139 28665 ft 398 kts 285°
2026-05-06 06:05 37.87168 -120.27554 28193 ft 395 kts 285°
2026-05-06 06:05 37.87575 -120.30978 27719 ft 393 kts 283°
2026-05-06 06:06 37.87825 -120.34435 27229 ft 395 kts 277°
2026-05-06 06:06 37.87643 -120.37919 26767 ft 398 kts 266°
2026-05-06 06:06 37.87147 -120.41346 26297 ft 398 kts 263°
2026-05-06 06:06 37.86566 -120.44744 25827 ft 396 kts 263°
2026-05-06 06:07 37.85978 -120.48113 25350 ft 393 kts 263°
2026-05-06 06:07 37.85391 -120.51486 24877 ft 391 kts 263°
2026-05-06 06:07 37.84815 -120.54815 24406 ft 388 kts 263°
2026-05-06 06:07 37.84239 -120.58160 23934 ft 386 kts 263°
2026-05-06 06:08 37.83682 -120.61418 23487 ft 383 kts 263°
2026-05-06 06:08 37.83121 -120.64707 23021 ft 381 kts 263°
2026-05-06 06:08 37.82561 -120.67968 22554 ft 379 kts 262°
2026-05-06 06:08 37.82008 -120.71190 22119 ft 377 kts 262°
2026-05-06 06:09 37.81451 -120.74439 21658 ft 375 kts 262°
2026-05-06 06:09 37.80910 -120.77614 21209 ft 373 kts 262°
2026-05-06 06:09 37.80370 -120.80793 20781 ft 371 kts 262°
2026-05-06 06:09 37.79823 -120.83997 20310 ft 369 kts 262°
2026-05-06 06:10 37.79286 -120.87119 20037 ft 361 kts 262°
2026-05-06 06:10 37.78747 -120.90209 19486 ft 363 kts 262°
2026-05-06 06:10 37.78205 -120.93308 18913 ft 364 kts 262°
2026-05-06 06:10 37.77668 -120.96397 18458 ft 362 kts 262°
2026-05-06 06:11 37.77130 -120.99489 18012 ft 360 kts 262°
2026-05-06 06:11 37.76591 -121.02590 17442 ft 362 kts 262°
2026-05-06 06:11 37.76053 -121.05679 16997 ft 359 kts 261°
2026-05-06 06:11 37.75525 -121.08707 16661 ft 353 kts 262°
2026-05-06 06:12 37.74995 -121.11765 15886 ft 360 kts 261°
2026-05-06 06:12 37.74466 -121.14829 15114 ft 362 kts 261°
2026-05-06 06:12 37.73929 -121.17922 14575 ft 357 kts 261°
2026-05-06 06:12 37.73402 -121.20926 14058 ft 350 kts 260°
2026-05-06 06:13 37.72886 -121.23864 13641 ft 341 kts 260°
2026-05-06 06:13 37.72384 -121.26743 13232 ft 333 kts 260°
2026-05-06 06:13 37.71886 -121.29578 12830 ft 326 kts 261°
2026-05-06 06:13 37.71378 -121.32327 12454 ft 322 kts 257°
2026-05-06 06:14 37.70725 -121.35037 12022 ft 322 kts 255°
2026-05-06 06:14 37.70007 -121.37696 11637 ft 321 kts 254°
2026-05-06 06:14 37.69271 -121.40372 11225 ft 320 kts 254°
2026-05-06 06:14 37.68550 -121.43012 10834 ft 318 kts 254°
2026-05-06 06:15 37.67836 -121.45631 10441 ft 317 kts 254°
2026-05-06 06:15 37.67122 -121.48259 10048 ft 315 kts 254°
2026-05-06 06:15 37.66418 -121.50851 9737 ft 311 kts 254°
2026-05-06 06:15 37.65731 -121.53384 9376 ft 308 kts 254°
2026-05-06 06:16 37.65041 -121.55920 9002 ft 301 kts 254°
2026-05-06 06:16 37.64368 -121.58394 8643 ft 294 kts 254°
2026-05-06 06:16 37.63722 -121.60769 8382 ft 283 kts 255°
2026-05-06 06:16 37.63097 -121.63058 8286 ft 267 kts 255°
2026-05-06 06:17 37.62514 -121.65199 8210 ft 252 kts 254°
2026-05-06 06:17 37.61953 -121.67272 8169 ft 250 kts 254°
2026-05-06 06:17 37.61541 -121.69424 8032 ft 255 kts 267°
2026-05-06 06:17 37.61376 -121.71661 7683 ft 260 kts 269°
2026-05-06 06:18 37.61235 -121.73922 7392 ft 258 kts 269°
2026-05-06 06:18 37.61084 -121.76175 7096 ft 254 kts 268°
2026-05-06 06:18 37.60937 -121.78354 6835 ft 248 kts 268°
2026-05-06 06:18 37.60793 -121.80504 6562 ft 242 kts 268°
2026-05-06 06:19 37.60731 -121.82600 6311 ft 236 kts 274°
2026-05-06 06:19 37.60741 -121.84651 6060 ft 237 kts 273°
2026-05-06 06:19 37.60746 -121.86698 5795 ft 232 kts 274°
2026-05-06 06:19 37.60756 -121.88723 5534 ft 228 kts 274°
2026-05-06 06:20 37.60767 -121.90698 5284 ft 224 kts 274°
2026-05-06 06:20 37.60777 -121.92665 4956 ft 224 kts 273°
2026-05-06 06:20 37.60783 -121.94642 4498 ft 230 kts 271°
2026-05-06 06:20 37.60739 -121.96648 4179 ft 228 kts 270°
2026-05-06 06:21 37.60685 -121.98617 3870 ft 222 kts 270°
2026-05-06 06:21 37.60635 -122.00526 3628 ft 214 kts 270°
2026-05-06 06:21 37.60656 -122.02358 3412 ft 204 kts 278°
2026-05-06 06:21 37.60848 -122.04108 3200 ft 196 kts 279°
2026-05-06 06:22 37.61033 -122.05758 3005 ft 188 kts 279°
2026-05-06 06:22 37.61233 -122.07351 2831 ft 178 kts 286°
2026-05-06 06:22 37.61731 -122.08714 2632 ft 170 kts 305°
2026-05-06 06:22 37.62433 -122.09905 2393 ft 164 kts 308°
2026-05-06 06:23 37.63109 -122.10950 2176 ft 150 kts 309°
2026-05-06 06:23 37.63759 -122.11927 1980 ft 143 kts 308°
2026-05-06 06:23 37.64415 -122.12907 1795 ft 147 kts 309°
2026-05-06 06:23 37.65076 -122.13890 1584 ft 147 kts 309°
2026-05-06 06:24 37.65388 -122.14354 1488 ft 146 kts 309°
2026-05-06 06:24 37.66042 -122.15327 1293 ft 146 kts 309°
2026-05-06 06:24 37.66698 -122.16305 1095 ft 146 kts 309°
2026-05-06 06:24 37.67353 -122.17281 899 ft 146 kts 309°
2026-05-06 06:25 37.68003 -122.18249 704 ft 145 kts 309°
2026-05-06 06:25 37.68656 -122.19224 487 ft 146 kts 309°
2026-05-06 06:25 37.69985 -122.21186 121 ft 147 kts 309°
2026-05-06 06:26 37.70629 -122.22156 14 ft 130 kts 309°
2026-05-06 06:26 37.71099 -122.22855 14 ft 79 kts 310°
2026-05-06 06:26 37.71390 -122.23295 14 ft 58 kts 310°
2026-05-06 06:26 37.71637 -122.23657 14 ft 51 kts 310°
2026-05-06 06:27 37.71831 -122.23949 14 ft 30 kts 309°
2026-05-06 06:27 37.71948 -122.24030 14 ft 16 kts 30°
2026-05-06 06:27 37.71994 -122.23933 14 ft 13 kts 110°
2026-05-06 06:27 37.71932 -122.23830 14 ft 16 kts 130°
2026-05-06 06:28 37.71863 -122.23698 14 ft 19 kts 121°
2026-05-06 06:28 37.71785 -122.23540 14 ft 22 kts 122°
2026-05-06 06:28 37.71688 -122.23365 14 ft 25 kts 128°
2026-05-06 06:28 37.71589 -122.23209 14 ft 21 kts 129°
2026-05-06 06:29 37.71500 -122.23078 14 ft 18 kts 131°
2026-05-06 06:29 37.71419 -122.22957 14 ft 20 kts 130°
2026-05-06 06:29 37.71317 -122.22800 14 ft 25 kts 130°
2026-05-06 06:29 37.71201 -122.22629 14 ft 25 kts 131°
2026-05-06 06:30 37.71083 -122.22452 14 ft 28 kts 131°
2026-05-06 06:30 37.70943 -122.22244 14 ft 32 kts 131°
2026-05-06 06:30 37.70804 -122.22034 14 ft 29 kts 129°
2026-05-06 06:30 37.70697 -122.21875 14 ft 17 kts 127°
2026-05-06 06:31 37.70723 -122.21751 14 ft 18 kts 43°
2026-05-06 06:31 37.70834 -122.21638 14 ft 18 kts 39°
2026-05-06 06:31 37.70885 -122.21506 14 ft 16 kts 58°
2026-05-06 06:31 37.70977 -122.21396 14 ft 19 kts 39°
2026-05-06 06:32 37.71044 -122.21335 14 ft 6 kts 28°
2026-05-06 06:32 37.71072 -122.21315 14 ft 2 kts 36°
2026-05-06 06:32 37.71085 -122.21293 14 ft 2 kts 54°
2026-05-06 06:32 37.71085 -122.21292 14 ft 0 kts 54°